Location: *
(46.3500°N, 10.9000°E)
Time: 09:26:59
(UTC+00:00)

Vanguard 2 - Pass Details

Date: 04 December 2021
Orbit: 554 x 2935 km, 32.9° (Epoch: 27 January)

Event Time Altitude Azimuth Distance (km) Brightness Sun altitude
Rises 18:17:04 0° 256° (WSW) 4,307 12.6 -27.9°
Reaches altitude 10° 18:21:33 10° 234° (SW) 3,795 11.7 -28.7°
Maximum altitude 18:26:21 14° 205° (SSW) 3,904 11.4 -29.5°
Drops below altitude 10° 18:32:11 10° 178° (S) 4,756 11.5 -30.5°
Sets 18:39:22 0° 158° (SSE) 6,255 12.0 -31.7°
